Погода в Чжанъе

Китай     38°55′59″N   100°27′17″E
темп.,
°C
ветер,
м/с
пор.,
м/с
влажн.,
%
обл.,
%
осадки,
мм/ч
давл.,
гПа
погр.,
м
8 мая, сб
сб823:00+19сз12100 0.0 100811
02:00+17ююв33100 0.0 100812
05:00+16юв44115 0.0 100821
08:00+18ююв35105 0.0 1008117
11:00+25ююв1155 0.0 1006647
14:00+29ссз44538 0.0 10022292
17:00+29с4455 0.0 10002446
20:00+26ссз3375 0.0 100126
9 мая, вс
вс923:00+21зюз11943 0.0 100211
02:00+19юз121059 0.0 100211
05:00+17ссз4515100 0.0 100546
08:00+19с5102030 0.0 1007575
11:00+23сз88266 0.0 10071624
14:00+25сз882082 0.0 10052267
17:00+26сз8917100 0.0 10032984
20:00+23с7922100 0.0 1005825
10 мая, пн
пн1023:00+21с4627100 0.0 1007226
02:00+20з333199 0.0 100750
05:00+18с1236100 0.0 100711
08:00+19зюз2234100 0.0 100989
11:00+21ю4330100 0.0 10091477
14:00+24вюв4523100 0.0 10052845
17:00+26св0518100 0.0 10033438
20:00+24ссз3416100 0.0 100453
11 мая, вт
вт1123:00+21ю2318100 0.0 100516
02:00+19юв3425100 0.0 100528
05:00+18юв442971 0.0 100435
08:00+20ююз22270 0.0 1005115
11:00+25ссз22170 0.0 10041295
14:00+28с22120 0.0 10002447
17:00+30с4390 0.0 9973144
20:00+27ссв69111 0.0 999277
12 мая, ср
ср1223:00+22вюв14141 0.0 100153
02:00+19юв22171 0.0 100114
05:00+18ююв22220 0.0 100020
08:00+20сз11210 0.0 1001131
11:00+25сз54150 0.0 10001122
14:00+28сз54120 0.0 9971616
17:00+30сз65102 0.0 9942315
20:00+27ссз45130 0.0 99582